Location: La Comballaz
(46.3780°N, 7.0817°E)
Time: 08:21:51
(UTC+00:00)

Meteor 2-17 Rocket - Pass Details

Date: 09 April 2020
Orbit: 935 x 956 km, 82.5° (Epoch: 01 June)

Event Time Altitude Azimuth Distance (km) Brightness Sun altitude
Rises 18:58:20 0° 352° (N) 3,643 7.9 -8.5°
Reaches altitude 10° 19:00:52 10° 355° (N) 2,695 7.2 -8.9°
Maximum altitude 19:07:01 70° 79° (E) 1,016 4.5 -9.9°
Drops below altitude 10° 19:13:09 10° 163° (SSE) 2,679 6.4 -10.9°
Sets 19:15:39 0° 166° (SSE) 3,620 7.1 -11.3°
